Location: Nitra
(0.0000°N, 18.0833°E)
Time: 20:16:33
(UTC+02:00)

A-11 Canister half - Pass Details

Date: 31 March 2023
Orbit: 1526 x 1682 km, 47.3° (Epoch: 08 June)

Event Time Altitude Azimuth Distance (km) Brightness Sun altitude
Rises 22:54:59 0° 336° (NNW) 4,757 11.8 -60.5°
Enters shadow 22:56:17 - 339° (NNW) 4,369 11.5 -60.8°
Reaches altitude 10° 22:58:26 10° 345° (NNW) 3,752 - -61.4°
Maximum altitude 23:06:57 37° 49° (NE) 2,213 - -63.5°
Drops below altitude 10° 23:15:17 10° 114° (ESE) 3,692 - -65.5°
Sets 23:18:36 0° 121° (ESE) 4,673 - -66.3°
